GW5350 Weather Reports


time (UTC)temp
F
wind
direction
speed
knots
gust
knots
rain 1hr
in
rain 24hr
in
rain mn
in
humidity
%
barometer
mb
20260505053311 91 180 0.9 1.7 0.00 0.00 0.00 61 985.0
20260505052811 91 163 1.7 1.7 0.00 0.00 0.00 61 985.0
20260505052312 91 188 0.9 0.9 0.00 0.00 0.00 61 985.0
20260505051811 91 131 0.0 0.9 0.00 0.00 0.00 61 985.0
20260505051311 91 61 0.9 0.9 0.00 0.00 0.00 61 985.0
20260505050811 91 100 0.0 0.0 0.00 0.00 0.00 61 985.0
20260505050312 92 239 0.9 1.7 0.00 0.00 0.00 60 985.0
20260505041312 90 100 0.9 0.9 0.00 0.00 0.00 61 985.0
20260505040811 90 129 0.0 0.0 0.00 0.00 0.00 62 986.0
20260505040312 89 101 0.0 0.0 0.00 0.00 0.00 62 985.0
20260505035812 89 92 0.9 0.9 0.00 0.00 0.00 62 985.0
20260505035311 89 158 1.7 1.7 0.00 0.00 0.00 61 985.0
20260505034811 88 152 1.7 1.7 0.00 0.00 0.00 62 986.0
20260505034312 88 125 0.0 0.0 0.00 0.00 0.00 62 986.0
20260505033812 88 338 1.7 1.7 0.00 0.00 0.00 63 986.0
20260505033311 87 126 0.9 0.9 0.00 0.00 0.00 60 985.0
20260505032812 86 167 1.7 1.7 0.00 0.00 0.00 61 985.0
20260505032311 86 122 0.0 0.9 0.00 0.00 0.00 61 986.0
20260505031811 86 145 0.9 0.9 0.00 0.00 0.00 61 985.0
20260505031311 85 93 0.0 0.9 0.00 0.00 0.00 62 985.0
20260505030811 85 135 0.0 0.0 0.00 0.00 0.00 62 985.0
20260505030311 85 128 0.0 0.0 0.00 0.00 0.00 63 985.0
20260505025811 86 181 0.9 0.9 0.00 0.00 0.00 62 985.0
20260505025312 85 165 0.0 0.9 0.00 0.00 0.00 63 985.0
20260505024811 84 113 0.0 0.0 0.00 0.00 0.00 65 985.0
20260505024311 85 120 0.0 0.9 0.00 0.00 0.00 66 985.0
20260505023811 84 50 0.9 0.9 0.00 0.00 0.00 66 985.0
20260505023311 83 126 0.0 0.0 0.00 0.00 0.00 68 985.0
20260505022812 83 126 0.0 0.0 0.00 0.00 0.00 69 985.0
20260505022311 83 136 0.0 0.0 0.00 0.00 0.00 70 985.0
20260505021812 82 124 0.0 0.0 0.00 0.00 0.00 72 985.0
20260505021311 82 127 0.0 0.0 0.00 0.00 0.00 72 985.0
20260505020811 81 132 0.0 0.0 0.00 0.00 0.00 72 985.0
20260505020311 81 117 0.0 0.9 0.00 0.00 0.00 73 985.0
20260505015811 81 128 0.0 0.0 0.00 0.00 0.00 73 985.0
20260505015312 81 122 0.0 0.0 0.00 0.00 0.00 74 985.0
20260505014811 80 121 0.0 0.0 0.00 0.00 0.00 74 985.0
20260505014312 80 137 0.0 0.0 0.00 0.00 0.00 75 985.0
20260505013812 80 146 0.0 0.9 0.00 0.00 0.00 75 985.0
20260505013311 80 172 0.0 0.0 0.00 0.00 0.00 75 985.0
20260505012811 79 140 0.0 0.0 0.00 0.00 0.00 75 985.0
20260505012312 79 91 0.9 0.9 0.00 0.00 0.00 76 985.0
20260505011815 79 69 0.0 0.9 0.00 0.00 0.00 76 985.0
20260505011312 79 114 0.0 0.0 0.00 0.00 0.00 76 985.0
20260505010811 79 126 0.0 0.0 0.00 0.00 0.00 76 985.0
20260505010312 79 124 0.0 0.0 0.00 0.00 0.00 77 985.0
20260505005811 79 122 0.0 0.0 0.00 0.00 0.00 77 985.0
20260505005311 79 62 0.9 0.9 0.00 0.00 0.00 77 985.0
20260505004811 78 123 0.0 0.0 0.00 0.00 0.00 77 985.0
20260505004311 78 121 0.0 0.0 0.00 0.00 0.00 77 985.0
20260505003813 78 130 0.0 0.0 0.00 0.00 0.00 78 985.0
20260505003314 78 124 0.0 0.0 0.00 0.00 0.00 78 985.0
20260505002811 79 130 0.0 0.0 0.00 0.00 0.00 78 985.0
20260504172811 81 132 0.0 0.0 0.00 0.00 0.08 70 986.0
20260504172314 81 122 0.0 0.0 0.00 0.00 0.08 69 986.0
20260504171812 80 88 1.7 1.7 0.00 0.00 0.08 70 986.0
20260504171312 80 112 1.7 2.6 0.00 0.00 0.08 70 986.0
20260504170811 80 37 6.1 8.7 0.00 0.00 0.08 70 986.0
20260504170312 80 104 2.6 3.5 0.00 0.00 0.08 70 986.0
20260504160313 81 204 0.9 0.9 0.00 0.00 0.08 68 985.0
20260504150812 84 124 1.7 3.5 0.00 0.00 0.08 65 984.0
20260504150315 84 118 1.7 1.7 0.00 0.00 0.08 65 984.0
20260504141315 84 110 0.9 0.9 0.00 0.00 0.08 63 983.0
20260504140815 84 116 0.0 0.0 0.00 0.00 0.08 63 983.0
20260504140312 84 117 0.0 0.0 0.00 0.00 0.08 64 983.0
20260504130815 86 147 0.0 0.9 0.00 0.00 0.08 60 982.0
20260504130315 86 221 0.9 0.9 0.00 0.00 0.08 59 981.0
20260504120312 87 111 0.9 0.9 0.00 0.00 0.08 54 981.0
20260504110311 86 129 5.2 7.8 0.00 0.00 0.08 66 981.0
20260504100312 98 114 0.0 0.0 0.00 0.00 0.08 52 980.0
20260504081812 95 183 2.6 2.6 0.00 0.00 0.08 59 982.0
20260504081311 95 165 1.7 1.7 0.00 0.00 0.08 59 982.0
20260504080811 94 125 1.7 2.6 0.00 0.00 0.08 60 982.0
20260504080312 94 156 1.7 2.6 0.00 0.00 0.08 61 982.0
20260504070311 93 134 1.7 1.7 0.00 0.00 0.08 63 983.0